• In Hungary
  • List of Countries
  • For 7 days
  • Water Temperature
  • Satellite Maps
  • Weather Map
  • News
  • Weather Widgets
  • user-avatar
    Login

    Hourly Weather Lobkovo

    Today, 26 February, Monday

    Time Temperature Precipitation Wind Pressure Humidity
    00:00 -20°C° 0 mm 1 mps 749 mmHg 98%
    01:00 -20°C° 0 mm 1 mps 749 mmHg 98%
    02:00 -21°C° 0 mm 1 mps 749 mmHg 98%
    03:00 -21°C° 0 mm 1 mps 749 mmHg 98%
    04:00 -21°C° 0 mm 1 mps 749 mmHg 98%
    05:00 -21°C° 0 mm 1 mps 749 mmHg 98%
    06:00 -21°C° 0 mm 1 mps 749 mmHg 98%
    07:00 -21°C° 0 mm 1 mps 749 mmHg 98%
    08:00 -21°C° 0 mm 1 mps 749 mmHg 97%
    09:00 -20°C° 0 mm 1 mps 749 mmHg 94%
    10:00 -18°C° 0 mm 1 mps 749 mmHg 91%
    11:00 -17°C° 0 mm 1 mps 749 mmHg 88%
    12:00 -16°C° 0 mm 1 mps 749 mmHg 86%
    13:00 -15°C° 0 mm 0 mps 749 mmHg 83%
    14:00 -15°C° 0 mm 0 mps 749 mmHg 81%
    15:00 -16°C° 0 mm 0 mps 749 mmHg 84%
    16:00 -17°C° 0 mm 1 mps 749 mmHg 87%
    17:00 -18°C° 0 mm 1 mps 749 mmHg 90%
    18:00 -19°C° 0 mm 1 mps 749 mmHg 91%
    19:00 -20°C° 0 mm 1 mps 749 mmHg 93%
    20:00 -20°C° 0 mm 1 mps 749 mmHg 94%
    21:00 -21°C° 0 mm 1 mps 749 mmHg 95%
    22:00 -21°C° 0 mm 1 mps 750 mmHg 95%
    23:00 -22°C° 0 mm 1 mps 750 mmHg 96%

    Tomorrow, 27 February, Tuesday

    Time Temperature Precipitation Wind Pressure Humidity
    00:00 -22°C° 0 mm 1 mps 750 mmHg 96%
    01:00 -26°C° 0 mm 2 mps 751 mmHg 96%
    02:00 -26°C° 0 mm 2 mps 751 mmHg 97%
    03:00 -26°C° 0 mm 2 mps 751 mmHg 97%
    04:00 -27°C° 0 mm 2 mps 751 mmHg 97%
    05:00 -27°C° 0 mm 2 mps 751 mmHg 98%
    06:00 -27°C° 0 mm 2 mps 752 mmHg 97%
    07:00 -26°C° 0 mm 2 mps 752 mmHg 97%
    08:00 -26°C° 0 mm 2 mps 753 mmHg 97%
    09:00 -25°C° 0 mm 3 mps 753 mmHg 95%
    10:00 -24°C° 0 mm 3 mps 754 mmHg 93%
    11:00 -22°C° 0 mm 3 mps 754 mmHg 91%
    12:00 -21°C° 0 mm 3 mps 754 mmHg 90%
    13:00 -20°C° 0 mm 4 mps 754 mmHg 88%
    14:00 -19°C° 0 mm 4 mps 754 mmHg 86%
    15:00 -19°C° 0 mm 4 mps 754 mmHg 87%
    16:00 -20°C° 0 mm 4 mps 754 mmHg 88%
    17:00 -20°C° 0 mm 4 mps 754 mmHg 89%
    18:00 -20°C° 0 mm 4 mps 755 mmHg 90%
    19:00 -22°C° 0 mm 4 mps 755 mmHg 91%
    20:00 -24°C° 0 mm 5 mps 755 mmHg 91%
    21:00 -24°C° 0 mm 5 mps 756 mmHg 91%
    22:00 -24°C° 0 mm 5 mps 756 mmHg 91%
    23:00 -24°C° 0 mm 5 mps 756 mmHg 91%

    Day after tomorrow, 28 February, Wednesday

    Time Temperature Precipitation Wind Pressure Humidity
    00:00 -25°C° 0 mm 5 mps 756 mmHg 91%
    01:00 -25°C° 0 mm 5 mps 756 mmHg 91%
    02:00 -25°C° 0 mm 5 mps 756 mmHg 91%
    03:00 -26°C° 0 mm 6 mps 756 mmHg 91%
    04:00 -27°C° 0 mm 6 mps 755 mmHg 91%
    05:00 -27°C° 0 mm 6 mps 755 mmHg 90%
    06:00 -27°C° 0 mm 6 mps 755 mmHg 89%
    07:00 -26°C° 0 mm 6 mps 755 mmHg 88%
    08:00 -26°C° 0 mm 7 mps 755 mmHg 87%
    09:00 -25°C° 0 mm 7 mps 755 mmHg 85%
    10:00 -24°C° 0 mm 7 mps 754 mmHg 84%
    11:00 -23°C° 0 mm 7 mps 754 mmHg 82%
    12:00 -23°C° 0 mm 7 mps 754 mmHg 82%
    13:00 -21°C° 0 mm 7 mps 753 mmHg 81%
    14:00 -20°C° 0 mm 7 mps 753 mmHg 81%
    15:00 -20°C° 0 mm 7 mps 753 mmHg 82%
    16:00 -20°C° 0 mm 7 mps 752 mmHg 83%
    17:00 -21°C° 0 mm 7 mps 752 mmHg 84%
    18:00 -21°C° 0 mm 7 mps 752 mmHg 85%
    19:00 -21°C° 0 mm 7 mps 752 mmHg 86%
    20:00 -21°C° 0 mm 7 mps 752 mmHg 87%
    21:00 -21°C° 0 mm 6 mps 752 mmHg 87%
    22:00 -21°C° 0 mm 6 mps 752 mmHg 88%
    23:00 -22°C° 0 mm 6 mps 752 mmHg 88%

    1 March, Thursday

    Time Temperature Precipitation Wind Pressure Humidity
    00:00 -22°C° 0 mm 6 mps 752 mmHg 89%
    01:00 -22°C° 0 mm 6 mps 752 mmHg 89%
    02:00 -21°C° 0 mm 5 mps 752 mmHg 90%
    03:00 -21°C° 0.1 mm 5 mps 752 mmHg 90%
    04:00 -21°C° 0.1 mm 5 mps 752 mmHg 90%
    05:00 -21°C° 0.1 mm 5 mps 752 mmHg 90%
    06:00 -21°C° 0 mm 5 mps 752 mmHg 90%
    07:00 -21°C° 0 mm 5 mps 752 mmHg 91%
    08:00 -21°C° 0 mm 5 mps 752 mmHg 91%
    09:00 -20°C° 0 mm 5 mps 752 mmHg 90%
    10:00 -19°C° 0 mm 5 mps 752 mmHg 90%
    11:00 -18°C° 0 mm 5 mps 752 mmHg 90%
    12:00 -18°C° 0 mm 5 mps 752 mmHg 90%
    13:00 -17°C° 0 mm 5 mps 752 mmHg 90%
    14:00 -15°C° 0 mm 5 mps 751 mmHg 90%
    15:00 -15°C° 0 mm 5 mps 751 mmHg 90%
    16:00 -15°C° 0 mm 5 mps 751 mmHg 90%
    17:00 -15°C° 0 mm 5 mps 750 mmHg 90%
    18:00 -15°C° 0.1 mm 5 mps 750 mmHg 90%
    19:00 -15°C° 0.1 mm 5 mps 750 mmHg 89%
    20:00 -17°C° 0.1 mm 5 mps 750 mmHg 89%
    21:00 -17°C° 0.1 mm 6 mps 750 mmHg 88%
    22:00 -17°C° 0.1 mm 6 mps 750 mmHg 88%
    23:00 -17°C° 0.1 mm 6 mps 749 mmHg 88%

    2 March, Friday

    Time Temperature Precipitation Wind Pressure Humidity
    00:00 -17°C° 0.1 mm 6 mps 749 mmHg 87%
    01:00 -17°C° 0.1 mm 5 mps 749 mmHg 86%
    02:00 -17°C° 0.1 mm 5 mps 748 mmHg 85%
    03:00 -17°C° 0 mm 5 mps 748 mmHg 85%
    04:00 -17°C° 0 mm 5 mps 748 mmHg 85%
    05:00 -17°C° 0 mm 5 mps 747 mmHg 85%
    06:00 -17°C° 0 mm 5 mps 747 mmHg 85%
    07:00 -17°C° 0 mm 5 mps 747 mmHg 85%
    08:00 -17°C° 0 mm 5 mps 747 mmHg 85%
    09:00 -17°C° 0 mm 5 mps 747 mmHg 85%
    10:00 -15°C° 0 mm 5 mps 747 mmHg 85%
    11:00 -14°C° 0 mm 5 mps 747 mmHg 85%
    12:00 -13°C° 0.1 mm 5 mps 746 mmHg 85%
    13:00 -12°C° 0.1 mm 5 mps 746 mmHg 86%
    14:00 -11°C° 0.1 mm 4 mps 746 mmHg 86%
    15:00 -11°C° 0.1 mm 4 mps 745 mmHg 87%
    16:00 -11°C° 0.1 mm 4 mps 745 mmHg 89%
    17:00 -11°C° 0.1 mm 4 mps 745 mmHg 90%
    18:00 -11°C° 0.1 mm 4 mps 745 mmHg 91%
    19:00 -12°C° 0.1 mm 4 mps 744 mmHg 92%
    20:00 -12°C° 0.1 mm 4 mps 744 mmHg 93%
    21:00 -13°C° 0 mm 3 mps 744 mmHg 93%
    22:00 -13°C° 0 mm 3 mps 744 mmHg 94%
    23:00 -13°C° 0 mm 3 mps 744 mmHg 94%

    3 March, Saturday

    Time Temperature Precipitation Wind Pressure Humidity
    00:00 -14°C° 0 mm 3 mps 743 mmHg 95%
    01:00 -14°C° 0 mm 3 mps 743 mmHg 95%
    02:00 -14°C° 0 mm 3 mps 743 mmHg 96%
    03:00 -14°C° 0 mm 3 mps 742 mmHg 96%
    04:00 -13°C° 0 mm 2 mps 742 mmHg 96%
    05:00 -13°C° 0 mm 2 mps 742 mmHg 96%
    06:00 -14°C° 0 mm 3 mps 741 mmHg 96%
    07:00 -14°C° 0 mm 3 mps 741 mmHg 96%
    08:00 -14°C° 0 mm 3 mps 741 mmHg 96%
    09:00 -12°C° 0 mm 3 mps 741 mmHg 95%
    10:00 -10°C° 0 mm 3 mps 741 mmHg 93%
    11:00 -8°C° 0 mm 2 mps 741 mmHg 92%
    12:00 -7°C° 0 mm 2 mps 741 mmHg 91%
    13:00 -6°C° 0 mm 2 mps 740 mmHg 90%
    14:00 -6°C° 0 mm 2 mps 740 mmHg 89%
    15:00 -6°C° 0 mm 2 mps 740 mmHg 90%
    16:00 -6°C° 0 mm 2 mps 740 mmHg 91%
    17:00 -6°C° 0 mm 2 mps 740 mmHg 92%
    18:00 -7°C° 0 mm 2 mps 740 mmHg 93%
    19:00 -8°C° 0 mm 2 mps 740 mmHg 94%
    20:00 -9°C° 0 mm 2 mps 740 mmHg 95%
    21:00 -9°C° 0 mm 2 mps 740 mmHg 96%
    22:00 -10°C° 0 mm 2 mps 740 mmHg 96%
    23:00 -10°C° 0 mm 2 mps 740 mmHg 97%
    Show more